AAL33K KSFO-KLAX

Flight info

Callsign AAL33K
Flight time 0h 59m
Altitude 37000
Route WESLA5 SUSEY EBAYE BURGL IRNMN2
Aircraft B772/H-SDE2E3FGHIJ5LORVWXY/LB1D1

Departure

Time 2026-04-25 21:58
Airport San Francisco International Airport (KSFO)

Arrival

Time 2026-04-25 22:57
Airport Los Angeles International Airport (KLAX)
Time Latitude Longitude Altitude Speed Heading
2026-04-25 21:37 37.61891 -122.39394 24 ft 0 kts 155°
2026-04-25 21:44 37.61918 -122.39408 24 ft 4 kts 159°
2026-04-25 21:45 37.61939 -122.39419 24 ft 4 kts 149°
2026-04-25 21:45 37.61953 -122.39432 25 ft 4 kts 132°
2026-04-25 21:45 37.61968 -122.39471 25 ft 4 kts 92°
2026-04-25 21:45 37.61966 -122.39504 27 ft 4 kts 74°
2026-04-25 21:46 37.61959 -122.39531 27 ft 0 kts 73°
2026-04-25 21:48 37.61979 -122.39450 23 ft 23 kts 73°
2026-04-25 21:48 37.61989 -122.39409 21 ft 0 kts 73°
2026-04-25 21:48 37.61990 -122.39404 21 ft 6 kts 73°
2026-04-25 21:49 37.62002 -122.39356 24 ft 0 kts 73°
2026-04-25 21:49 37.62052 -122.39322 22 ft 22 kts 21°
2026-04-25 21:50 37.62167 -122.39224 19 ft 13 kts 72°
2026-04-25 21:50 37.62207 -122.39122 19 ft 13 kts 45°
2026-04-25 21:50 37.62248 -122.39017 19 ft 13 kts 72°
2026-04-25 21:50 37.62274 -122.38904 18 ft 13 kts 83°
2026-04-25 21:51 37.62225 -122.38806 17 ft 14 kts 127°
2026-04-25 21:51 37.62174 -122.38704 20 ft 14 kts 119°
2026-04-25 21:51 37.62129 -122.38597 23 ft 14 kts 117°
2026-04-25 21:51 37.62085 -122.38490 27 ft 14 kts 118°
2026-04-25 21:52 37.62040 -122.38384 30 ft 14 kts 118°
2026-04-25 21:52 37.61998 -122.38279 27 ft 13 kts 116°
2026-04-25 21:52 37.61956 -122.38178 31 ft 13 kts 117°
2026-04-25 21:52 37.61942 -122.38145 30 ft 7 kts 118°
2026-04-25 21:53 37.61895 -122.38032 30 ft 16 kts 118°
2026-04-25 21:53 37.61862 -122.37953 28 ft 7 kts 118°
2026-04-25 21:53 37.61840 -122.37899 25 ft 8 kts 113°
2026-04-25 21:53 37.61813 -122.37817 24 ft 2 kts 112°
2026-04-25 21:54 37.61806 -122.37797 24 ft 3 kts 112°
2026-04-25 21:54 37.61805 -122.37794 24 ft 3 kts 112°
2026-04-25 21:54 37.61795 -122.37764 26 ft 4 kts 112°
2026-04-25 21:54 37.61768 -122.37678 23 ft 27 kts 111°
2026-04-25 21:55 37.61695 -122.37447 26 ft 28 kts 116°
2026-04-25 21:55 37.61599 -122.37228 27 ft 28 kts 119°
2026-04-25 21:55 37.61508 -122.37007 26 ft 28 kts 119°
2026-04-25 21:55 37.61416 -122.36786 24 ft 28 kts 111°
2026-04-25 21:56 37.61417 -122.36669 24 ft 13 kts 74°
2026-04-25 21:56 37.61447 -122.36607 25 ft 13 kts 46°
2026-04-25 21:56 37.61505 -122.36627 25 ft 0 kts 290°
2026-04-25 21:57 37.61506 -122.36631 25 ft 6 kts 290°
2026-04-25 21:57 37.61634 -122.36993 29 ft 102 kts 289°
2026-04-25 21:57 37.62156 -122.38168 246 ft 189 kts 298°
2026-04-25 21:58 37.62857 -122.39665 1687 ft 201 kts 298°
2026-04-25 21:58 37.63514 -122.41074 2782 ft 178 kts 297°
2026-04-25 21:58 37.64274 -122.42672 3273 ft 241 kts 298°
2026-04-25 21:58 37.65161 -122.44511 5047 ft 250 kts 297°
2026-04-25 21:59 37.65976 -122.46527 6864 ft 262 kts 296°
2026-04-25 21:59 37.66790 -122.48598 8573 ft 272 kts 291°
2026-04-25 21:59 37.67055 -122.50978 10169 ft 282 kts 261°
2026-04-25 22:00 37.64922 -122.55197 13241 ft 313 kts 215°
2026-04-25 22:00 37.62853 -122.56316 14447 ft 335 kts 191°
2026-04-25 22:00 37.60491 -122.56320 15692 ft 347 kts 166°
2026-04-25 22:00 37.58275 -122.55128 17149 ft 348 kts 146°
2026-04-25 22:01 37.56249 -122.53395 18549 ft 353 kts 141°
2026-04-25 22:01 37.54234 -122.51625 19630 ft 363 kts 144°
2026-04-25 22:01 37.52085 -122.49866 20731 ft 372 kts 146°
2026-04-25 22:01 37.50614 -122.48710 21479 ft 377 kts 146°
2026-04-25 22:02 37.47738 -122.46122 22904 ft 385 kts 135°
2026-04-25 22:02 37.45862 -122.43647 23823 ft 393 kts 131°
2026-04-25 22:02 37.44032 -122.41066 24755 ft 398 kts 131°
2026-04-25 22:02 37.42186 -122.38440 25653 ft 405 kts 132°
2026-04-25 22:03 37.40328 -122.35821 26930 ft 398 kts 133°
2026-04-25 22:03 37.38466 -122.33227 27818 ft 402 kts 133°
2026-04-25 22:03 37.36571 -122.30617 28658 ft 407 kts 134°
2026-04-25 22:03 37.34650 -122.27995 29329 ft 415 kts 134°
2026-04-25 22:04 37.32678 -122.25315 30057 ft 420 kts 135°
2026-04-25 22:04 37.30678 -122.22604 30641 ft 425 kts 135°
2026-04-25 22:04 37.28658 -122.19872 31191 ft 430 kts 135°
2026-04-25 22:04 37.26594 -122.17084 31780 ft 435 kts 135°
2026-04-25 22:05 37.24518 -122.14282 32383 ft 439 kts 136°
2026-04-25 22:05 37.22454 -122.11496 32960 ft 443 kts 136°
2026-04-25 22:05 37.20337 -122.08644 33529 ft 447 kts 136°
2026-04-25 22:05 37.18205 -122.05773 33997 ft 452 kts 137°
2026-04-25 22:06 37.16042 -122.02863 34347 ft 457 kts 137°
2026-04-25 22:06 37.13860 -121.99928 34723 ft 462 kts 137°
2026-04-25 22:06 37.11657 -121.96969 35072 ft 466 kts 137°
2026-04-25 22:06 37.09438 -121.93991 35402 ft 470 kts 137°
2026-04-25 22:07 37.07191 -121.90977 35720 ft 474 kts 137°
2026-04-25 22:07 37.05700 -121.88977 35920 ft 476 kts 137°
2026-04-25 22:07 37.02667 -121.84915 36365 ft 479 kts 137°
2026-04-25 22:07 37.00385 -121.81862 36760 ft 479 kts 137°
2026-04-25 22:08 36.98108 -121.78818 36983 ft 481 kts 137°
2026-04-25 22:08 36.95804 -121.75746 36969 ft 485 kts 137°
2026-04-25 22:08 36.91224 -121.69639 36965 ft 481 kts 137°
2026-04-25 22:09 36.86650 -121.63549 36973 ft 480 kts 137°
2026-04-25 22:09 36.82067 -121.57466 36966 ft 481 kts 137°
2026-04-25 22:10 36.77501 -121.51414 36956 ft 481 kts 138°
2026-04-25 22:10 36.72909 -121.45339 36969 ft 481 kts 138°
2026-04-25 22:11 36.68326 -121.39287 36962 ft 481 kts 138°
2026-04-25 22:11 36.63727 -121.33225 36960 ft 480 kts 138°
2026-04-25 22:12 36.59132 -121.27180 36934 ft 481 kts 138°
2026-04-25 22:12 36.55301 -121.22151 36919 ft 480 kts 139°
2026-04-25 22:13 36.49955 -121.15138 36910 ft 480 kts 138°
2026-04-25 22:13 36.45354 -121.09116 36922 ft 481 kts 139°
2026-04-25 22:14 36.40781 -121.03021 36916 ft 483 kts 136°
2026-04-25 22:14 36.36403 -120.96679 36925 ft 484 kts 135°
2026-04-25 22:15 36.32076 -120.90348 36922 ft 483 kts 136°
2026-04-25 22:16 36.25506 -120.80891 36932 ft 481 kts 136°
2026-04-25 22:16 36.21136 -120.74647 36933 ft 481 kts 136°
2026-04-25 22:17 36.16731 -120.68368 36938 ft 482 kts 136°
2026-04-25 22:17 36.12336 -120.62109 36936 ft 482 kts 136°
2026-04-25 22:18 36.07927 -120.55840 36925 ft 483 kts 136°
2026-04-25 22:18 36.03528 -120.49598 36948 ft 485 kts 136°
2026-04-25 22:19 35.99064 -120.43277 36965 ft 488 kts 136°
2026-04-25 22:19 35.94621 -120.36994 36939 ft 488 kts 136°
2026-04-25 22:20 35.90146 -120.30676 36938 ft 488 kts 137°
2026-04-25 22:20 35.85482 -120.24651 36939 ft 479 kts 148°
2026-04-25 22:21 35.79817 -120.20604 36950 ft 470 kts 157°
2026-04-25 22:21 35.74148 -120.16531 36935 ft 472 kts 154°
2026-04-25 22:22 35.68578 -120.12293 36942 ft 474 kts 154°
2026-04-25 22:22 35.62954 -120.08050 36941 ft 474 kts 154°
2026-04-25 22:23 35.57334 -120.03806 36923 ft 473 kts 155°
2026-04-25 22:23 35.51714 -119.99568 36953 ft 473 kts 155°
2026-04-25 22:24 35.46127 -119.95363 36949 ft 474 kts 155°
2026-04-25 22:24 35.40500 -119.91133 36933 ft 474 kts 155°
2026-04-25 22:25 35.34862 -119.86903 36938 ft 474 kts 155°
2026-04-25 22:25 35.29307 -119.82738 36514 ft 469 kts 155°
2026-04-25 22:25 35.26570 -119.80512 35982 ft 467 kts 151°
2026-04-25 22:26 35.23984 -119.78126 35513 ft 463 kts 149°
2026-04-25 22:26 35.21467 -119.75688 35023 ft 458 kts 149°
2026-04-25 22:26 35.18987 -119.73273 34552 ft 454 kts 149°
2026-04-25 22:26 35.16513 -119.70893 34067 ft 449 kts 150°
2026-04-25 22:27 35.14060 -119.68568 33595 ft 443 kts 150°
2026-04-25 22:27 35.11623 -119.66283 33079 ft 438 kts 150°
2026-04-25 22:27 35.09241 -119.64065 32558 ft 434 kts 150°
2026-04-25 22:27 35.06819 -119.61815 32038 ft 430 kts 150°
2026-04-25 22:28 35.04475 -119.59639 31514 ft 426 kts 151°
2026-04-25 22:28 35.02128 -119.57463 31044 ft 422 kts 151°
2026-04-25 22:28 34.99800 -119.55302 30558 ft 418 kts 151°
2026-04-25 22:28 34.97499 -119.53166 30085 ft 414 kts 151°
2026-04-25 22:29 34.95224 -119.51055 29616 ft 409 kts 151°
2026-04-25 22:29 34.93732 -119.49672 29274 ft 406 kts 151°
2026-04-25 22:29 34.91485 -119.47593 28713 ft 403 kts 151°
2026-04-25 22:30 34.87176 -119.43708 27675 ft 397 kts 152°
2026-04-25 22:30 34.84954 -119.41731 27139 ft 394 kts 152°
2026-04-25 22:30 34.82742 -119.39762 26663 ft 391 kts 152°
2026-04-25 22:30 34.81297 -119.38472 26348 ft 389 kts 152°
2026-04-25 22:31 34.78385 -119.35869 25728 ft 385 kts 152°
2026-04-25 22:31 34.76257 -119.33973 25296 ft 383 kts 152°
2026-04-25 22:31 34.74107 -119.32060 24862 ft 381 kts 152°
2026-04-25 22:31 34.71968 -119.30184 24418 ft 378 kts 152°
2026-04-25 22:32 34.69834 -119.28324 24004 ft 376 kts 152°
2026-04-25 22:32 34.67711 -119.26474 23570 ft 373 kts 152°
2026-04-25 22:32 34.65630 -119.24658 23052 ft 371 kts 152°
2026-04-25 22:32 34.63534 -119.22834 22629 ft 369 kts 153°
2026-04-25 22:33 34.61451 -119.21040 22194 ft 366 kts 153°
2026-04-25 22:33 34.59378 -119.19259 21805 ft 364 kts 152°
2026-04-25 22:33 34.57308 -119.17476 21392 ft 363 kts 152°
2026-04-25 22:33 34.55253 -119.15697 20980 ft 362 kts 152°
2026-04-25 22:34 34.53223 -119.13906 20551 ft 362 kts 151°
2026-04-25 22:34 34.51196 -119.12100 20190 ft 360 kts 150°
2026-04-25 22:34 34.49190 -119.10309 19993 ft 354 kts 151°
2026-04-25 22:34 34.47204 -119.08550 19938 ft 354 kts 151°
2026-04-25 22:35 34.45208 -119.06788 19953 ft 357 kts 151°
2026-04-25 22:35 34.43189 -119.05016 19932 ft 359 kts 152°
2026-04-25 22:35 34.41153 -119.03253 19942 ft 360 kts 152°
2026-04-25 22:35 34.39110 -119.01486 19940 ft 360 kts 152°
2026-04-25 22:36 34.37098 -118.99745 19935 ft 360 kts 152°
2026-04-25 22:36 34.35063 -118.97987 19939 ft 360 kts 152°
2026-04-25 22:36 34.33141 -118.96328 19935 ft 360 kts 152°
2026-04-25 22:36 34.31100 -118.94567 19910 ft 358 kts 152°
2026-04-25 22:37 34.29080 -118.92821 19938 ft 356 kts 152°
2026-04-25 22:37 34.27062 -118.91077 19946 ft 356 kts 152°
2026-04-25 22:37 34.25046 -118.89333 19937 ft 356 kts 152°
2026-04-25 22:37 34.23027 -118.87588 19934 ft 357 kts 152°
2026-04-25 22:38 34.21007 -118.85844 19930 ft 357 kts 152°
2026-04-25 22:38 34.18986 -118.84101 19674 ft 355 kts 152°
2026-04-25 22:38 34.16984 -118.82373 19199 ft 354 kts 152°
2026-04-25 22:38 34.14971 -118.80638 18711 ft 355 kts 151°
2026-04-25 22:39 34.12990 -118.78930 18262 ft 353 kts 151°
2026-04-25 22:39 34.11091 -118.77274 17451 ft 342 kts 150°
2026-04-25 22:39 34.09158 -118.75593 16535 ft 341 kts 150°
2026-04-25 22:39 34.07241 -118.73924 15633 ft 339 kts 150°
2026-04-25 22:40 34.05335 -118.72263 14703 ft 335 kts 150°
2026-04-25 22:40 34.03444 -118.70620 13655 ft 335 kts 150°
2026-04-25 22:40 34.01557 -118.68981 12627 ft 331 kts 149°
2026-04-25 22:40 33.99742 -118.67403 11729 ft 325 kts 149°
2026-04-25 22:41 33.97921 -118.65818 10886 ft 319 kts 148°
2026-04-25 22:41 33.96135 -118.64265 10018 ft 313 kts 148°
2026-04-25 22:41 33.94553 -118.62525 9080 ft 315 kts 129°
2026-04-25 22:41 33.93663 -118.60105 8435 ft 328 kts 102°
2026-04-25 22:42 33.93689 -118.57351 8214 ft 331 kts 78°
2026-04-25 22:42 33.94602 -118.54842 8066 ft 327 kts 54°
2026-04-25 22:42 33.96189 -118.52949 7763 ft 315 kts 36°
2026-04-25 22:42 33.97989 -118.51463 7201 ft 313 kts 32°
2026-04-25 22:43 33.99810 -118.50085 6538 ft 313 kts 31°
2026-04-25 22:43 34.01639 -118.48716 6318 ft 307 kts 30°
2026-04-25 22:43 34.03415 -118.47394 6182 ft 312 kts 31°
2026-04-25 22:43 34.05264 -118.46012 6023 ft 313 kts 35°
2026-04-25 22:44 34.06797 -118.44170 5967 ft 311 kts 59°
2026-04-25 22:44 34.07572 -118.41808 5995 ft 306 kts 78°
2026-04-25 22:44 34.07961 -118.39259 5994 ft 309 kts 86°
2026-04-25 22:44 34.07721 -118.36771 5980 ft 291 kts 115°
2026-04-25 22:45 34.06521 -118.34923 5991 ft 275 kts 147°
2026-04-25 22:45 34.04922 -118.33740 5994 ft 267 kts 142°
2026-04-25 22:45 34.03873 -118.31900 6000 ft 271 kts 109°
2026-04-25 22:45 34.03755 -118.29645 6010 ft 271 kts 85°
2026-04-25 22:46 34.04094 -118.27405 6007 ft 271 kts 82°
2026-04-25 22:46 34.04450 -118.25181 6001 ft 270 kts 82°
2026-04-25 22:46 34.04799 -118.22974 5994 ft 270 kts 82°
2026-04-25 22:46 34.05159 -118.20740 5979 ft 272 kts 82°
2026-04-25 22:47 34.05531 -118.18497 5940 ft 272 kts 82°
2026-04-25 22:47 34.05894 -118.16258 5880 ft 271 kts 82°
2026-04-25 22:47 34.06259 -118.14031 5814 ft 268 kts 82°
2026-04-25 22:47 34.06613 -118.11839 5760 ft 263 kts 81°
2026-04-25 22:48 34.06938 -118.09702 5676 ft 263 kts 82°
2026-04-25 22:48 34.07266 -118.07533 5635 ft 261 kts 81°
2026-04-25 22:48 34.07565 -118.05388 5563 ft 255 kts 88°
2026-04-25 22:48 34.07301 -118.03356 5461 ft 240 kts 117°
2026-04-25 22:49 34.06284 -118.01884 5303 ft 219 kts 150°
2026-04-25 22:49 34.04887 -118.01389 5051 ft 206 kts 186°
2026-04-25 22:49 34.03593 -118.01945 4768 ft 197 kts 219°
2026-04-25 22:49 34.02657 -118.03118 4469 ft 194 kts 230°
2026-04-25 22:50 34.01817 -118.04364 4122 ft 193 kts 231°
2026-04-25 22:50 34.00998 -118.05594 4033 ft 188 kts 231°
2026-04-25 22:50 34.00159 -118.06879 4045 ft 197 kts 231°
2026-04-25 22:50 33.99337 -118.08178 4046 ft 194 kts 231°
2026-04-25 22:51 33.98588 -118.09534 4010 ft 196 kts 245°
2026-04-25 22:51 33.98278 -118.11140 3893 ft 196 kts 259°
2026-04-25 22:51 33.98059 -118.12761 3728 ft 192 kts 259°
2026-04-25 22:51 33.97870 -118.14333 3319 ft 189 kts 261°
2026-04-25 22:52 33.97711 -118.15855 2916 ft 181 kts 261°
2026-04-25 22:52 33.97558 -118.17340 2358 ft 175 kts 261°
2026-04-25 22:52 33.97408 -118.18796 2118 ft 177 kts 261°
2026-04-25 22:52 33.97306 -118.19785 2037 ft 181 kts 261°
2026-04-25 22:53 33.97102 -118.21787 2010 ft 176 kts 260°
2026-04-25 22:53 33.96953 -118.23229 1991 ft 173 kts 260°
2026-04-25 22:53 33.96809 -118.24639 2011 ft 173 kts 260°
2026-04-25 22:53 33.96665 -118.26051 2001 ft 162 kts 259°
2026-04-25 22:54 33.96528 -118.27376 1995 ft 161 kts 259°
2026-04-25 22:54 33.96395 -118.28680 2018 ft 154 kts 259°
2026-04-25 22:54 33.96258 -118.29996 1818 ft 155 kts 260°
2026-04-25 22:54 33.96139 -118.31183 1599 ft 132 kts 258°
2026-04-25 22:55 33.96030 -118.32221 1454 ft 121 kts 259°
2026-04-25 22:55 33.95944 -118.33054 1330 ft 123 kts 260°
2026-04-25 22:55 33.95837 -118.34110 1148 ft 125 kts 260°
2026-04-25 22:55 33.95731 -118.35126 992 ft 126 kts 263°
2026-04-25 22:56 33.95628 -118.36151 807 ft 118 kts 259°
2026-04-25 22:56 33.95522 -118.37157 643 ft 126 kts 259°
2026-04-25 22:56 33.95458 -118.37807 493 ft 126 kts 262°
2026-04-25 22:56 33.95357 -118.38796 350 ft 117 kts 257°
2026-04-25 22:57 33.95254 -118.39768 229 ft 118 kts 259°
2026-04-25 22:57 33.95150 -118.40751 138 ft 111 kts 262°
2026-04-25 22:57 33.95057 -118.41555 98 ft 79 kts 266°
2026-04-25 22:57 33.95022 -118.42038 99 ft 43 kts 257°
2026-04-25 22:58 33.94899 -118.42240 100 ft 29 kts 215°
2026-04-25 22:58 33.94740 -118.42269 101 ft 0 kts 180°